Weather observations for the past three days for
Conway Horry County Airport
Imperial (Metric)
Date Time (edt) Wind (mph) Vis. (mi.) Weather Sky Cond. Temperature (ºF) Relative Humidity Wind Chill (°F) Heat Index (°F) Pressure Precipitation (in)
Air Dwpt 6 hour altimeter (in) sea level (mb) 1 hr 3 hr 6 hr
Max. Min.
17 06:55 SW 5 10.00 Thunderstorm in Vicinity CLR 77 75.2 94% 78 30 0.0
17 06:35 S 3 10.00 Fair CLR 77 75.2 94% 78 29.99 0.0
17 06:15 SW 3 10.00 Thunderstorm in Vicinity CLR 77 75.2 94% 78 29.99 0.0
17 05:55 S 5 10.00 Fair CLR 77 75.2 94% 78 29.99 0.0
17 05:35 S 3 10.00 Fair CLR 77 75.2 94% 78 29.98 0.0
17 05:15 S 3 10.00 Fair CLR 77 75.2 94% 78 29.97 0.0
17 04:55 Calm 10.00 Fair CLR 77 75.2 94% 78 29.97 0.0
17 04:35 Calm 10.00 Fair CLR 77 75.2 94% 78 29.96 0.0
17 04:15 S 3 10.00 Fair CLR 77 73.4 89% 78 29.96 0.0
17 03:55 S 3 10.00 Fair CLR 77 73.4 89% 78 29.96 0.0
17 03:35 Calm 10.00 Fair CLR 77 73.4 89% 78 29.96 0.0
17 03:15 S 3 10.00 Fair CLR 77 73.4 89% 78 29.96 0.0
17 02:55 Calm 10.00 Fair CLR 77 73.4 89% 78 29.97 0.0
17 02:35 S 3 10.00 Fair CLR 77 73.4 89% 78 29.98 0.0
17 02:15 S 5 10.00 Fair CLR 77 73.4 89% 78 29.99 0.0
17 01:55 S 3 10.00 Fair CLR 75.2 73.4 94% 74 30 0.0
17 01:35 S 3 10.00 Fair CLR 73.4 73.4 100% 30.01 0.0
17 01:15 Calm 5.00 Fog/Mist CLR 73.4 73.4 100% 30.01 0.0
17 00:55 Calm 7.00 Fair CLR 75.2 73.4 94% 74 30.01 0.0
17 00:35 Calm 10.00 Fair CLR 75.2 73.4 94% 74 30.01 0.0
17 00:15 Calm 10.00 Fair CLR 73.4 73.4 100% 30.01 0.0
16 23:55 Calm 7.00 Fair CLR 73.4 73.4 100% 30.01 0.0
16 23:35 Calm 10.00 Fair CLR 75.2 73.4 94% 74 30.01 0.0
16 23:15 Calm 10.00 Fair CLR 77 73.4 89% 78 30 0.0
16 22:55 Calm 10.00 Fair CLR 75.2 73.4 94% 74 30 0.0
16 22:35 Calm 10.00 Fair CLR 73.4 73.4 100% 30 0.0
16 22:15 Calm 10.00 Fair CLR 73.4 73.4 100% 30.01 0.0
16 21:55 Calm 10.00 Fair CLR 73.4 73.4 100% 30 0.0
16 21:35 Calm 10.00 Fair CLR 75.2 73.4 94% 74 30 0.0
16 21:15 Calm 10.00 Fair CLR 75.2 73.4 94% 74 29.99 0.0
16 20:55 S 3 10.00 Fair CLR 73.4 73.4 100% 29.99 0.0
16 20:35 S 3 10.00 Fair CLR 73.4 73.4 100% 29.99 0.0
16 20:15 Calm 10.00 Fair CLR 73.4 73.4 100% 29.99 0.0
16 19:55 SW 6 10.00 Light Rain CLR 73.4 73.4 100% 29.99 0.0
16 19:35 Calm 10.00 Light Rain CLR 73.4 73.4 100% 29.99 0.0
16 19:15 Calm 10.00 Fair CLR 73.4 73.4 100% 29.98 0.0
16 18:55 Calm 7.00 Thunderstorm CLR 73.4 71.6 94% 29.98 0.0
16 18:35 N 6 10.00 Thunderstorm Heavy Rain SCT010 SCT016 SCT026 73.4 71.6 94% 29.99 0.0
16 18:15 W 12 G 25 2.50 Thunderstorm Heavy Rain SCT010 SCT016 SCT026 78.8 71.6 79% 82 30.03 0.0
16 17:55 S 5 10.00 Thunderstorm CLR 87.8 75.2 66% 98 29.98 0.0
16 17:35 S 9 10.00 Fair CLR 87.8 75.2 66% 98 29.97 0.0
16 17:15 S 9 G 17 10.00 Thunderstorm in Vicinity CLR 89.6 77 67% 103 29.96 0.0
16 16:55 S 9 G 17 10.00 Fair CLR 91.4 77 63% 105 29.95 0.0
16 16:35 SW 7 10.00 Thunderstorm in Vicinity SCT048 SCT060 93.2 73.4 53% 103 29.95 0.0
16 16:15 SW 7 10.00 Partly Cloudy SCT050 SCT055 91.4 73.4 56% 100 29.95 0.0
16 15:55 S 10 10.00 Partly Cloudy SCT050 91.4 75.2 59% 103 29.96 0.0
16 15:35 SW 6 10.00 Fair CLR 91.4 73.4 56% 100 29.96 0.0
16 15:15 S 7 10.00 Fair CLR 91.4 73.4 56% 100 29.96 0.0
16 14:55 SW 6 G 16 10.00 Fair CLR 91.4 73.4 56% 100 29.98 0.0
16 14:35 S 10 10.00 Partly Cloudy SCT046 SCT050 91.4 73.4 56% 100 29.98 0.0
16 14:15 S 12 10.00 Partly Cloudy SCT046 SCT050 91.4 73.4 56% 100 29.99 0.0
16 13:55 S 10 G 20 10.00 Fair CLR 91.4 73.4 56% 100 29.99 0.0
16 13:35 SW 7 10.00 Fair CLR 91.4 73.4 56% 100 30 0.0
16 13:15 S 8 10.00 Fair CLR 91.4 73.4 56% 100 30.01 0.0
16 12:55 S 8 10.00 Fair CLR 89.6 73.4 59% 98 30.01 0.0
16 12:35 SW 8 10.00 Fair CLR 89.6 73.4 59% 98 30.01 0.0
16 12:15 SW 6 10.00 Fair CLR 87.8 73.4 62% 96 30.01 0.0
16 11:55 S 8 10.00 Fair CLR 87.8 75.2 66% 98 30.01 0.0
16 11:35 S 7 10.00 Fair CLR 87.8 75.2 66% 98 30.02 0.0
16 11:15 S 5 10.00 Fair CLR 86 75.2 70% 95 30.03 0.0
16 10:55 SW 8 10.00 NULL NULL 86 75.2 70% 95 30.03 0.0
16 10:35 S 5 10.00 NULL NULL 84.2 75.2 74% 92 30.03 0.0
16 09:35 SW 5 0.00 NULL NULL 80.6 75.2 84% 86 30.04 0.0
Date Time (edt) Wind (mph) Vis. (mi.) Weather Sky Cond. Air Dwpt Max. Min. Relative Humidity Wind Chill (°F) Heat Index (°F) altimeter (in) sea level (mb) 1 hr 3 hr 6 hr
6 hour
Temperature (ºF) Pressure Precipitation (in)